Wind_Speed
23 23 24 25 26 28 29 30 31 32 34 35 36 37 38 39 39 41 42 43 43 42 42 43 43 43 44 44 43 42 42 41 41 41 41 41 40 41 41 42 42 41 41 42 42 42 42 42 43 43 44 43 43 42 42 43 44 44 45 46 46 46 46 45 46 47 49 52 54 56 58 58 59 59 58 58 58 58 59 57 56 56 55 55 56 54 55
21 22 23 24 25 27 28 29 29 29 30 31 33 34 35 36 37 38 39 40 40 40 40 40 40 41 41 41 41 41 41 41 41 41 41 39 38 38 39 40 41 41 41 41 42 43 43 43 44 45 46 45 44 44 44 45 46 46 46 47 47 47 48 47 47 48 49 52 54 56 58 60 61 61 61 61 60 61 61 60 59 57 55 56 57 54 56
20 20 21 22 24 26 27 29 29 29 29 30 31 32 33 34 35 36 36 38 38 38 38 38 38 38 40 40 40 40 40 40 40 40 40 39 37 38 39 40 41 41 41 42 43 44 44 44 45 46 47 47 47 47 47 47 47 48 48 48 48 49 49 49 49 50 50 52 55 56 58 60 62 63 64 65 65 64 64 63 63 60 58 59 57 55 58
22 21 21 21 22 23 25 27 28 29 29 30 31 32 33 34 35 35 35 36 37 37 37 38 38 38 39 40 40 40 40 39 38 38 38 38 38 39 39 40 41 41 41 43 44 44 45 45 45 45 46 48 50 51 51 50 50 50 50 51 51 51 51 52 52 52 53 54 56 57 59 61 63 65 67 68 68 68 68 67 65 64 63 61 58 59 61
24 24 24 23 23 23 24 26 27 27 28 29 30 31 33 34 36 37 36 36 37 38 38 38 39 39 39 39 39 39 39 38 38 37 37 38 40 41 40 40 41 42 43 44 45 45 46 46 46 46 47 48 51 53 54 54 54 54 54 54 54 54 54 54 55 55 56 56 57 59 60 61 63 66 69 70 71 70 70 70 68 68 67 62 61 64 65
25 25 26 26 26 26 26 27 27 27 27 28 29 30 31 33 35 37 37 36 35 37 38 38 38 37 36 37 38 38 39 39 39 39 40 40 42 43 43 42 43 44 45 46 46 47 48 48 48 48 48 49 52 54 56 57 57 58 58 57 57 56 56 57 57 57 58 58 59 61 62 62 63 66 68 70 71 71 71 71 71 72 71 66 65 68 66
26 26 27 27 27 28 28 29 30 30 30 29 29 30 31 31 33 35 36 35 34 34 35 36 36 36 35 37 38 38 39 41 41 42 43 44 44 45 46 45 45 45 46 47 47 48 49 50 51 51 51 52 53 55 58 59 59 60 60 60 60 59 59 59 59 59 59 60 61 62 63 63 63 65 67 68 70 71 72 73 75 76 75 71 69 69 65
28 28 28 29 29 29 30 30 31 32 32 32 32 32 32 33 33 34 35 35 35 35 34 35 36 36 37 38 39 40 41 43 44 45 45 46 47 48 49 50 49 48 48 48 49 50 51 52 53 54 54 54 56 57 59 61 62 62 63 64 63 62 62 61 61 60 59 59 61 63 64 64 63 64 65 67 69 71 73 76 77 78 76 73 71 69 65
30 30 30 30 31 31 31 32 32 32 33 33 34 34 34 35 35 36 37 37 37 37 37 38 39 39 40 42 43 43 44 45 47 48 48 49 51 51 53 53 53 52 51 51 52 53 54 55 56 56 56 57 58 59 60 61 63 64 65 66 65 64 63 62 62 61 58 59 63 64 64 65 63 62 64 68 70 73 76 78 78 78 76 74 72 69 66
33 32 32 32 33 34 34 34 34 34 34 34 34 35 36 36 37 38 38 39 40 40 40 42 43 44 45 46 46 47 47 48 50 51 50 51 53 54 54 55 56 56 55 55 55 55 56 56 57 58 58 58 59 60 61 62 63 64 66 67 67 67 65 64 65 62 59 61 65 66 66 65 62 62 66 71 74 76 77 79 79 79 77 76 74 72 70
36 36 35 35 35 36 36 37 37 38 37 37 36 36 37 38 39 40 41 41 42 42 42 43 45 47 48 49 49 50 51 51 52 53 53 54 55 55 57 58 58 59 59 59 58 58 57 57 58 58 58 58 59 60 61 63 64 65 66 68 69 70 69 68 68 66 62 64 67 69 68 64 62 65 71 75 77 77 77 79 80 81 80 77 76 74 73
39 39 39 38 38 38 39 40 40 41 41 40 40 39 40 41 41 42 43 44 44 44 44 45 47 48 49 50 51 52 53 53 54 54 55 56 57 57 58 60 60 61 61 60 60 60 59 59 58 58 59 59 60 62 62 63 65 66 67 68 69 70 71 71 72 71 68 67 70 70 67 64 66 70 73 75 77 78 79 80 81 82 82 80 78 77 76
42 42 42 42 42 41 41 42 43 43 44 44 44 43 44 44 45 46 46 47 47 48 48 49 50 51 52 53 53 54 54 55 55 55 56 57 58 59 60 61 61 61 61 61 61 62 62 61 61 61 61 61 62 63 64 65 66 67 68 69 69 70 72 73 74 74 73 71 72 71 67 66 68 71 72 74 76 78 80 81 82 83 82 81 80 79 78
45 45 45 45 45 45 45 45 46 46 47 48 48 48 48 48 49 49 50 50 50 51 52 52 53 55 56 56 57 57 56 57 57 57 57 58 59 61 62 63 62 61 61 61 62 62 62 62 62 62 63 64 64 65 66 67 68 68 69 70 70 69 71 73 75 75 75 74 73 72 69 67 68 69 71 73 74 76 78 80 81 82 81 80 80 80 79
48 48 48 48 48 48 48 48 49 49 50 51 51 52 52 52 52 53 54 54 54 55 55 55 56 58 58 59 59 59 59 60 60 60 60 60 61 62 63 63 63 62 62 63 63 63 64 63 63 63 64 66 66 67 68 69 70 71 70 70 70 70 71 73 74 74 74 75 73 71 68 66 65 66 68 68 69 71 74 76 77 77 76 77 77 77 78
50 51 51 51 51 51 51 51 52 52 53 54 54 55 55 56 56 56 57 57 57 58 58 59 60 61 61 61 61 61 62 62 63 63 63 63 63 64 64 63 63 63 63 64 64 65 65 65 65 65 65 66 67 67 68 69 72 74 73 70 70 71 70 71 72 71 71 72 70 67 65 63 62 63 65 66 67 69 71 72 72 70 70 71 72 73 73
54 54 54 54 55 55 55 55 55 55 56 57 57 58 59 59 59 59 60 60 61 60 60 61 63 64 64 64 63 63 64 64 65 64 65 65 65 65 65 64 63 62 63 65 65 65 66 66 66 66 67 67 68 68 68 69 71 74 75 73 72 71 70 69 68 67 66 66 64 62 62 61 60 61 63 64 66 69 70 69 67 66 66 67 68 69 69
57 57 57 58 58 58 58 58 58 58 59 60 60 61 62 62 62 62 63 63 63 63 63 64 65 65 66 66 66 65 65 65 65 64 65 65 66 66 67 66 64 63 64 65 66 66 66 67 67 67 68 69 69 69 69 69 70 72 75 75 73 71 70 67 65 62 62 61 60 60 60 60 59 60 61 61 63 66 67 66 64 63 63 63 64 65 66
60 60 60 60 61 61 61 61 61 60 61 61 62 62 63 64 64 64 64 65 65 64 64 65 65 65 66 66 66 66 66 65 64 64 65 66 67 67 68 68 67 65 64 65 66 66 66 67 67 67 68 69 69 70 69 69 69 70 71 73 72 70 67 65 62 60 59 59 58 58 58 58 57 58 59 59 60 62 62 62 62 61 60 61 61 62 62
61 61 61 61 62 62 62 62 62 62 61 62 62 63 64 64 64 65 65 65 66 65 64 64 65 66 66 65 65 66 66 65 64 65 66 67 67 68 69 69 68 68 67 66 67 66 65 65 66 67 67 68 68 69 68 68 68 68 67 68 68 67 65 63 61 60 59 59 58 57 56 57 56 56 56 56 57 57 57 58 59 59 59 59 59 59 60
61 61 61 61 62 62 62 62 62 62 62 62 62 62 63 64 64 64 65 65 65 64 63 63 63 64 64 64 64 63 63 63 63 63 63 64 64 65 66 66 66 66 65 66 66 65 64 64 64 64 64 64 64 65 64 64 64 64 64 64 63 64 63 62 61 60 59 58 57 56 56 57 57 55 54 54 54 54 54 54 55 56 57 57 57 57 58
60 60 60 61 61 61 61 61 61 61 61 61 60 61 62 62 62 62 62 63 62 61 60 60 60 59 59 59 59 60 61 61 60 59 59 59 60 60 61 62 62 62 62 61 61 61 61 61 61 60 61 61 61 61 60 60 60 61 62 61 61 61 62 61 60 60 60 57 56 57 57 57 55 53 52 52 52 52 52 52 52 53 54 55 55 55 56
59 59 59 59 59 60 60 59 59 59 59 59 58 58 59 59 59 59 60 60 59 58 57 57 56 56 56 55 56 57 58 57 56 56 57 57 57 57 57 57 58 59 59 58 57 57 57 58 58 59 60 60 60 58 58 57 57 58 60 60 60 61 61 60 59 59 58 56 56 58 58 56 54 52 51 51 52 52 52 51 51 52 53 54 55 55 56
58 58 58 58 58 58 58 57 57 57 57 57 56 56 56 56 57 56 57 57 57 55 55 54 54 54 53 53 54 55 54 54 53 54 54 55 55 55 54 54 55 57 57 56 56 56 56 56 58 58 58 59 57 56 56 56 56 57 57 58 61 62 61 59 58 57 55 53 55 57 58 56 55 53 52 52 52 53 53 52 52 53 54 55 56 57 57
56 56 56 56 56 56 56 55 54 54 54 54 54 54 54 54 54 54 53 54 54 53 52 51 51 51 51 51 52 52 51 51 51 51 52 53 53 54 54 53 53 55 55 55 55 56 55 56 56 56 56 56 55 55 55 55 55 56 56 57 60 60 59 58 57 54 52 52 55 57 57 55 56 56 56 56 55 54 54 54 53 53 53 54 56 57 58
54 54 54 54 54 54 53 52 52 51 51 52 52 52 51 51 51 51 50 50 51 50 48 47 48 49 49 48 49 50 49 49 49 50 50 51 52 53 54 53 52 53 53 54 54 54 54 54 54 54 54 54 54 55 55 55 55 55 56 58 59 58 57 56 54 51 51 53 56 57 55 54 57 59 59 58 58 56 55 53 52 52 52 52 54 56 58
51 51 51 51 51 51 50 50 49 49 49 49 49 49 49 49 48 48 48 48 48 48 46 44 44 46 47 46 46 47 47 48 48 48 49 50 51 52 53 53 52 51 51 52 52 52 51 51 52 52 53 53 53 54 54 55 54 54 56 59 58 56 55 54 51 50 51 54 57 58 55 53 57 61 61 60 59 58 54 53 53 53 52 52 52 54 56
48 49 49 49 49 48 47 47 46 46 47 47 47 46 46 46 46 46 46 46 46 46 44 42 42 43 45 45 45 45 46 47 47 48 49 49 50 50 51 51 51 50 50 50 50 50 50 50 50 50 51 51 51 51 52 53 52 53 57 59 56 53 52 52 51 50 51 54 58 59 55 52 56 61 63 61 60 57 52 51 53 54 53 52 51 51 54
46 47 47 47 46 46 45 44 44 44 44 44 44 44 43 44 44 44 44 45 45 45 44 42 41 42 43 44 45 45 45 46 46 47 48 48 48 48 48 48 48 48 49 49 49 50 50 50 50 49 49 49 48 49 51 51 51 54 58 57 53 51 51 51 51 50 50 54 57 57 55 54 56 59 60 60 59 56 51 50 52 52 52 51 50 50 52
43 43 44 44 43 43 42 42 41 42 42 42 42 42 42 42 42 42 43 44 44 44 44 42 42 42 42 43 43 44 44 44 44 45 45 45 45 45 46 47 47 48 48 48 48 50 50 50 50 50 50 50 48 48 50 50 51 55 58 55 52 52 52 51 51 50 50 52 54 53 53 55 56 56 56 56 56 53 51 50 51 49 48 48 48 48 49
39 39 39 40 39 39 39 38 39 39 39 39 39 40 40 41 41 41 42 43 43 43 43 42 41 40 41 41 41 41 41 41 41 42 42 43 43 44 45 46 46 47 47 47 47 49 50 50 50 50 50 50 49 48 49 50 50 54 56 55 53 52 51 50 51 50 49 49 49 49 51 54 54 53 52 52 52 50 49 48 48 46 45 44 44 45 45
36 36 36 36 35 35 35 34 34 35 36 36 36 36 37 37 38 38 39 40 40 40 40 40 38 37 38 39 38 38 39 39 39 40 41 41 42 42 43 45 46 46 47 47 47 47 49 49 49 50 51 50 48 48 50 51 50 51 54 55 54 53 51 51 51 50 48 46 45 47 51 53 51 48 48 49 48 46 45 45 45 44 43 42 41 42 42
33 33 33 32 32 31 31 30 30 30 31 31 32 32 32 32 33 34 34 35 36 36 36 36 35 35 35 36 37 37 38 37 38 39 39 40 41 42 42 44 45 45 46 46 46 46 47 48 49 50 51 50 49 49 51 52 51 50 51 53 53 52 51 50 49 48 47 45 44 44 47 48 46 44 45 46 44 42 42 43 43 42 41 41 40 40 40
31 31 30 30 29 28 27 27 27 27 27 27 28 29 28 28 29 29 30 31 31 32 33 34 33 33 34 35 36 37 37 37 38 39 39 40 41 43 43 44 44 45 45 46 46 47 47 48 49 50 50 49 48 49 50 50 50 49 50 51 51 51 50 49 47 46 45 44 42 42 43 44 43 42 42 42 42 41 40 40 40 40 39 38 38 37 37
28 28 28 28 28 26 25 25 26 25 24 25 26 27 27 27 26 27 27 28 29 30 31 32 32 32 33 34 36 37 37 37 38 39 40 41 42 43 44 44 44 45 45 46 47 48 48 48 49 49 48 48 48 47 47 48 48 47 48 48 48 48 47 46 44 43 42 41 40 39 40 40 40 40 40 40 40 40 38 37 37 36 36 35 35 35 35
26 26 27 27 27 25 24 25 25 25 24 23 24 25 25 25 26 26 26 26 27 28 30 31 32 32 32 34 35 37 37 37 38 39 39 41 41 42 43 43 44 45 45 46 47 49 49 49 50 50 48 48 47 46 46 47 46 45 45 45 44 44 44 43 41 40 39 39 38 38 38 38 38 37 38 37 37 36 35 34 34 33 33 33 33 33 33
26 26 26 26 26 25 25 24 24 24 24 23 23 24 24 24 25 25 25 26 26 27 28 30 31 32 32 33 35 37 38 38 38 38 39 40 42 43 43 44 45 46 46 46 48 49 48 48 49 49 47 46 46 45 45 45 44 43 42 42 42 41 41 40 38 37 36 36 36 36 36 35 35 35 35 35 33 32 31 31 31 32 32 32 32 32 31
25 26 26 26 26 26 25 25 25 25 24 24 23 23 24 24 24 24 24 25 25 26 27 29 30 31 32 32 34 36 38 39 40 41 40 41 43 44 45 45 46 47 46 46 47 47 46 45 45 46 45 45 44 44 43 43 41 40 40 40 39 38 38 37 36 35 34 34 34 34 33 32 32 32 32 32 31 29 28 29 30 31 30 30 30 30 30
25 26 27 27 27 26 25 26 26 26 25 25 24 24 24 24 23 23 24 24 24 25 27 28 28 29 31 32 33 34 36 38 40 41 41 41 43 44 45 46 46 46 46 45 45 45 45 44 43 44 44 43 42 41 41 40 39 38 38 37 36 36 35 35 35 34 33 32 31 31 31 30 30 30 29 29 28 27 26 27 28 28 27 27 28 29 29
24 25 26 27 27 27 26 26 26 26 26 26 25 26 26 25 24 24 24 24 24 25 27 28 29 29 31 33 34 35 36 37 39 41 41 41 43 44 44 45 46 46 45 45 44 44 44 43 43 42 41 40 39 39 38 37 37 36 36 34 34 33 33 34 33 32 31 29 29 29 29 29 28 27 26 26 25 24 25 25 26 26 26 26 27 28 28
23 24 24 25 26 26 25 25 26 26 25 25 24 25 25 25 25 26 26 25 26 27 30 31 31 31 33 34 35 37 38 39 40 41 42 42 43 43 44 44 45 45 45 44 43 43 42 41 41 40 39 37 36 36 35 35 35 34 33 32 31 32 32 32 30 29 29 28 28 28 27 27 26 25 24 24 23 23 23 24 24 24 25 25 26 26 26
27 25 25 25 24 24 24 24 25 25 25 24 23 24 25 25 26 27 28 27 27 28 31 33 33 33 34 35 36 37 39 40 40 41 42 42 43 43 44 43 43 44 43 43 42 41 40 39 38 37 36 34 34 33 33 33 33 32 31 30 30 31 30 29 28 27 27 27 27 26 26 24 24 23 22 22 22 22 23 23 23 23 24 24 25 25 25
28 27 26 25 24 23 23 23 24 24 25 24 24 24 25 26 26 27 28 28 28 28 30 33 33 33 34 35 36 38 39 40 41 41 42 42 42 42 43 42 42 41 41 41 40 39 37 36 35 34 33 31 31 32 32 31 30 29 29 29 29 29 28 27 27 26 25 25 25 25 24 22 22 21 21 22 22 22 22 22 22 23 23 23 24 24 24
27 26 25 25 24 23 22 22 23 24 25 25 26 26 26 26 27 27 29 29 30 30 31 33 34 35 36 37 38 39 40 41 41 41 41 41 41 41 41 41 41 40 39 38 37 36 35 33 32 31 30 29 30 30 30 29 28 28 28 28 27 27 27 26 26 25 24 24 24 23 22 21 21 21 21 21 21 21 22 22 22 22 23 23 24 24 24
28 26 24 24 23 23 22 23 24 25 26 26 27 28 28 28 29 29 30 31 32 33 34 35 36 36 37 38 39 40 40 40 40 40 41 40 40 40 40 40 39 38 37 36 35 34 32 31 30 29 28 28 29 29 28 27 27 27 27 26 26 26 26 25 24 23 23 23 23 22 22 21 20 21 21 20 20 20 21 22 22 22 22 23 23 23 23
29 27 26 25 24 23 23 23 25 26 27 27 28 29 30 31 31 31 32 33 34 35 36 37 37 37 38 39 39 39 40 39 39 40 40 40 39 39 39 38 37 36 35 34 33 32 30 29 29 27 27 27 28 27 26 26 26 26 25 24 25 25 25 25 24 23 23 22 22 21 21 20 20 20 20 20 20 21 22 22 22 22 22 22 23 23 22
30 29 28 28 27 26 25 24 25 27 28 28 29 30 31 31 32 33 33 34 35 36 36 37 38 38 39 39 40 40 40 39 39 39 39 39 39 38 37 37 36 35 33 32 31 30 29 28 27 26 26 26 26 26 25 25 25 24 23 23 24 24 24 24 23 22 22 22 21 20 20 20 20 20 20 20 21 22 22 22 22 22 22 23 23 23 22
32 30 30 30 30 29 27 27 27 28 29 30 30 30 30 31 32 33 34 34 35 36 36 37 38 39 39 39 39 39 39 39 38 38 38 38 38 37 36 35 34 33 32 31 29 29 28 27 26 25 25 25 25 24 24 24 24 23 22 22 22 22 23 23 22 21 21 20 20 19 20 20 20 20 20 20 21 22 22 22 22 22 23 23 23 23 22
33 31 31 32 33 31 30 29 30 30 30 31 32 32 31 31 32 33 34 35 35 36 37 37 38 40 40 40 40 39 38 38 38 37 37 37 37 36 35 34 33 32 30 29 28 27 26 26 25 25 25 24 23 24 24 23 22 21 21 20 21 21 22 21 21 20 19 19 19 19 19 20 20 20 20 20 21 22 22 22 22 23 23 24 24 24 23
33 32 31 33 34 34 32 31 32 32 32 32 32 33 32 32 33 34 35 36 36 36 36 37 38 39 40 40 40 40 38 37 37 36 36 36 36 35 34 33 32 31 29 28 27 26 25 25 25 25 24 23 22 23 23 22 21 20 19 19 19 20 20 21 20 18 18 18 19 19 19 20 20 20 20 20 21 22 22 23 23 23 24 25 25 25 25
34 32 31 32 35 36 34 33 33 33 33 33 33 33 33 33 33 35 35 36 36 36 36 36 38 39 40 40 40 40 39 38 36 36 35 35 35 34 33 32 31 30 29 27 26 25 25 24 24 24 23 22 22 23 23 21 20 19 18 18 18 19 20 20 19 18 17 18 19 19 19 20 20 20 21 21 21 22 23 23 24 24 25 26 26 26 25
36 35 33 32 34 35 35 34 35 35 35 34 34 34 34 33 34 35 36 36 37 37 36 37 38 40 40 40 40 40 39 38 36 35 35 35 34 33 32 32 31 29 28 27 25 24 24 23 24 24 23 21 21 22 22 20 18 17 16 16 17 18 19 20 19 17 16 17 18 18 19 20 20 21 21 21 22 23 23 24 25 25 26 26 27 27 26
Wind_Direction
280 279 277 274 271 269 267 265 264 263 262 262 261 261 260 259 259 259 260 261 261 261 261 262 263 264 265 265 266 267 267 266 266 265 266 267 268 269 269 270 269 269 269 270 270 270 269 269 269 269 269 268 268 267 266 265 264 264 264 263 262 261 259 257 256 256 258 262 266 269 270 270 268 267 267 266 266 266 265 264 262 262 263 264 263 262 261
283 280 278 277 275 274 272 271 270 267 266 264 264 264 263 262 261 260 261 262 262 262 262 261 262 263 264 265 265 265 266 267 267 267 267 266 266 266 266 266 266 267 267 268 269 270 271 272 272 272 272 272 271 270 269 267 266 265 264 263 263 262 261 260 258 257 257 260 263 267 270 272 273 273 272 270 268 267 267 265 263 261 260 260 261 261 261
285 283 281 279 277 276 275 274 273 271 269 268 266 265 265 264 264 262 262 263 263 263 262 262 262 262 263 265 265 266 266 267 267 268 268 267 265 263 263 263 264 265 265 265 266 267 268 269 270 272 274 275 275 273 270 268 267 266 265 265 264 264 263 262 261 260 260 261 263 265 268 270 272 273 273 272 271 269 268 267 267 265 263 260 260 260 260
285 284 283 281 280 279 278 276 275 274 272 271 269 267 267 266 266 264 263 263 264 264 263 264 264 263 264 265 265 266 265 265 265 265 266 267 266 264 264 265 266 266 267 267 268 269 269 270 270 272 273 274 274 273 272 271 270 268 267 267 266 265 265 264 263 263 262 263 264 265 267 268 270 271 272 272 272 271 271 270 269 268 266 264 263 261 260
285 284 282 282 280 279 279 278 277 276 275 274 272 271 269 268 268 267 265 264 265 265 265 265 265 265 265 266 266 266 265 264 263 263 264 265 266 267 266 267 268 269 269 270 270 271 271 271 271 271 271 272 273 273 273 272 271 270 269 268 268 267 267 267 266 265 265 264 264 264 265 266 268 269 271 272 273 273 274 274 272 270 268 267 265 263 261
285 284 283 281 280 279 278 277 277 276 275 275 274 273 272 271 270 270 269 268 266 265 266 266 266 266 266 266 266 266 266 266 266 265 263 262 262 264 263 263 264 264 265 266 268 269 270 271 271 270 269 269 270 271 272 271 271 271 271 270 270 269 268 268 267 267 266 266 265 265 265 265 266 268 271 273 274 275 275 275 274 272 270 268 265 264 265
283 283 282 281 280 279 278 277 277 277 276 275 274 274 274 273 272 272 272 271 269 266 265 265 266 267 267 266 266 267 268 269 269 269 269 268 268 268 267 266 265 265 266 267 268 269 270 271 271 270 269 269 270 271 272 273 273 273 273 273 272 271 270 269 269 268 268 269 269 268 268 267 267 268 270 272 274 275 275 274 273 272 271 270 268 268 269
279 280 281 281 280 279 278 277 277 277 277 276 275 274 274 274 274 273 273 273 272 270 269 267 266 265 264 263 264 265 266 268 269 270 272 273 272 273 273 272 271 271 271 271 272 272 272 272 272 272 272 272 272 273 274 275 275 275 274 274 273 272 272 271 271 270 271 271 271 270 270 270 269 270 271 272 273 273 273 272 271 271 271 271 271 270 270
277 277 278 279 279 278 278 277 276 275 275 275 275 275 274 273 273 273 273 273 273 273 272 271 269 267 265 263 262 262 263 264 266 266 267 268 269 270 271 273 274 274 273 272 272 272 273 273 274 274 274 274 274 274 275 275 276 276 275 274 274 274 273 272 272 271 272 272 271 271 271 271 272 274 275 274 273 272 271 271 271 272 272 272 271 270 269
276 276 275 275 276 277 276 276 275 274 274 273 273 274 274 273 273 272 271 271 271 271 271 271 271 271 269 268 268 267 267 267 267 268 268 268 270 271 272 273 274 274 273 273 272 272 272 273 274 274 275 275 276 276 275 275 275 276 276 277 276 276 275 274 274 273 273 273 272 272 271 272 274 275 273 271 269 269 270 271 272 272 272 272 272 271 269
276 275 275 274 274 275 275 275 274 274 273 272 272 273 273 273 273 273 272 271 270 270 270 269 269 269 270 271 271 271 271 271 271 272 272 272 272 273 273 274 274 274 274 273 273 273 273 272 273 274 274 275 275 275 275 275 275 275 276 277 278 279 279 278 277 276 274 273 272 271 272 273 273 270 268 268 268 269 270 271 271 272 272 272 271 271 270
276 275 275 274 274 274 275 275 275 275 274 273 273 272 272 273 273 273 274 274 274 273 272 271 271 270 270 271 271 271 271 272 272 272 273 273 273 273 273 273 273 274 275 275 276 276 275 275 274 274 274 274 274 274 274 274 275 275 276 277 278 279 280 280 279 278 276 273 272 271 271 271 269 267 267 268 269 269 269 269 269 269 270 271 271 271 271
277 276 275 275 274 274 275 275 276 276 276 275 274 273 272 272 272 273 273 274 275 275 275 274 274 274 273 272 272 272 272 273 273 274 274 275 275 275 274 273 273 274 276 276 277 277 277 277 277 276 276 275 275 275 275 275 275 275 276 276 277 278 279 279 279 279 277 275 274 273 272 270 268 267 267 267 266 267 267 267 267 267 268 269 269 270 270
278 277 276 276 275 274 274 275 275 276 276 276 276 275 274 273 273 273 273 273 274 274 274 274 274 274 274 274 275 275 275 275 276 276 276 276 276 276 276 276 276 276 276 277 277 277 277 278 278 278 278 277 277 276 276 276 276 276 276 277 277 277 277 278 278 278 278 277 276 276 275 273 271 269 267 266 266 266 266 265 266 266 267 267 268 268 269
278 278 277 276 275 275 274 274 275 275 276 276 276 276 275 275 274 274 274 274 274 274 274 274 274 274 274 274 275 275 276 276 277 277 277 276 276 276 276 277 278 278 278 278 278 278 278 278 277 277 277 277 277 277 278 278 278 277 276 276 276 276 276 276 276 277 278 278 277 277 276 274 272 271 269 268 266 265 264 264 264 265 266 266 267 267 267
278 277 277 276 275 275 274 274 274 275 275 275 275 275 275 275 274 274 274 274 274 274 274 274 274 274 274 274 275 275 276 276 277 277 277 277 277 276 276 277 277 278 278 278 278 278 278 278 278 278 278 278 278 278 278 279 279 279 278 276 276 275 275 275 276 276 277 277 277 277 276 274 272 271 270 269 267 266 265 265 265 266 266 267 267 267 267
278 278 277 276 276 275 275 274 274 274 274 274 274 274 274 274 274 274 273 273 273 273 274 274 274 275 275 275 275 275 276 276 276 277 277 277 277 277 277 277 276 277 277 277 277 278 278 279 279 279 279 279 279 279 279 279 280 281 281 280 279 277 277 276 276 276 276 276 276 276 275 274 272 271 269 269 269 268 268 267 267 267 267 267 267 267 267
278 277 277 276 276 275 275 274 274 273 273 273 273 273 273 273 273 273 273 273 273 273 273 273 274 274 275 276 276 276 276 276 276 277 278 278 278 277 277 276 275 275 275 276 276 277 277 278 278 279 279 279 279 279 279 278 279 280 281 282 281 280 280 279 278 278 277 276 276 275 275 274 272 271 270 270 269 270 270 271 270 269 268 267 266 266 266
277 277 276 276 275 275 275 274 274 273 273 272 272 272 272 273 273 273 273 273 273 273 273 274 274 274 274 275 276 276 276 277 277 278 277 277 277 277 277 277 277 276 275 275 275 275 276 276 277 277 278 278 278 279 279 279 279 279 280 281 281 281 281 281 280 279 278 278 276 275 275 274 273 272 271 270 270 270 271 272 272 271 269 268 267 267 266
277 277 276 276 276 275 275 275 274 274 273 273 273 273 273 273 273 273 273 273 273 274 274 274 274 275 275 275 275 276 276 277 277 276 276 276 277 277 278 278 278 278 278 277 277 276 276 276 276 277 277 277 278 278 279 279 279 279 280 281 281 282 282 281 281 280 280 279 278 278 277 276 275 274 272 272 271 271 271 270 270 270 269 268 267 266 265
278 277 277 277 276 276 276 275 275 275 274 274 274 274 274 274 274 274 274 274 274 274 274 274 274 275 275 276 276 277 277 276 275 275 276 276 277 277 278 278 278 279 279 279 279 279 279 278 278 278 278 278 277 278 278 279 280 280 280 280 281 282 282 282 282 282 281 281 281 281 279 278 277 276 275 274 273 272 270 269 269 269 269 269 268 267 266
279 278 278 277 277 277 276 276 276 276 275 275 275 275 275 275 275 275 275 276 276 276 276 276 276 276 276 276 276 277 276 276 276 277 277 277 277 277 278 278 279 279 278 278 279 280 280 280 280 279 279 279 278 278 279 279 280 280 280 280 280 280 281 281 282 282 282 282 282 281 279 278 278 278 277 275 274 272 270 269 269 268 268 268 268 267 267
280 279 279 278 278 278 277 277 277 277 277 277 277 276 276 276 277 277 277 277 277 278 278 277 277 277 277 277 276 276 276 276 277 278 278 277 277 277 277 278 279 280 280 280 280 280 280 280 280 280 279 279 279 279 279 279 279 279 280 281 281 280 280 280 280 280 281 282 282 282 281 280 279 277 275 273 272 271 270 269 269 268 267 267 266 266 265
281 280 280 280 279 279 279 278 278 278 278 278 278 278 278 277 277 277 278 278 278 278 278 279 279 279 278 278 277 276 277 277 277 277 278 278 278 278 278 278 279 279 280 281 280 280 280 279 279 279 279 279 279 279 279 279 279 278 279 280 280 279 279 280 280 280 282 283 283 281 280 280 279 277 275 273 271 270 269 268 267 266 266 267 267 267 266
282 282 282 281 281 281 281 280 280 280 280 280 280 280 279 279 279 279 279 279 279 279 279 279 279 279 279 278 278 278 278 278 278 278 278 279 279 279 279 279 278 279 280 280 280 280 280 279 278 279 279 279 279 280 280 280 280 280 280 279 277 278 279 280 281 282 284 283 280 278 278 279 279 278 276 274 272 270 269 268 267 267 267 268 269 269 268
283 283 283 283 283 282 282 282 282 283 282 282 281 281 281 280 280 280 280 280 280 279 279 280 280 280 279 279 279 279 279 279 279 279 279 279 279 280 280 280 279 279 280 280 280 279 279 279 279 279 279 280 281 281 281 281 281 281 280 279 278 278 280 280 281 283 282 280 278 277 277 279 279 278 277 276 275 273 272 272 271 271 269 268 267 267 267
284 284 284 283 283 283 283 283 284 283 283 282 282 282 282 281 281 281 281 281 281 280 280 280 281 281 281 280 280 280 281 281 281 281 280 280 280 280 280 281 281 280 280 279 279 278 278 278 279 279 279 280 280 281 281 281 281 281 280 278 278 279 280 281 282 282 280 279 278 277 277 279 279 279 278 277 276 275 275 276 275 273 270 267 265 265 265
286 285 284 284 283 283 283 283 283 283 282 282 282 282 282 282 282 282 281 281 281 281 282 281 281 281 281 281 282 282 282 282 282 281 281 281 281 281 281 281 281 281 280 280 279 279 279 279 278 278 278 278 279 280 280 280 281 280 278 277 278 280 281 281 281 280 279 279 278 279 279 279 278 277 277 276 276 275 275 275 273 272 270 269 267 265 264
287 286 285 284 284 284 283 283 282 282 281 281 281 281 281 281 282 282 282 282 282 282 283 283 282 281 281 282 282 282 282 282 282 282 282 282 281 281 281 281 281 281 281 282 282 282 282 282 282 281 281 281 281 282 282 281 281 280 279 279 281 283 282 281 280 279 278 278 277 278 278 277 274 273 274 275 276 277 276 274 271 270 270 270 269 267 265
288 287 287 286 286 285 285 284 283 282 282 281 282 282 282 282 282 282 282 282 283 283 284 284 283 283 283 282 282 283 282 282 282 282 282 282 282 283 283 283 283 283 284 284 285 285 285 285 285 285 285 285 284 284 283 283 283 281 281 283 284 283 282 281 280 279 277 276 276 276 277 276 273 273 273 275 276 277 277 274 272 271 269 268 267 266 265
292 291 290 290 289 289 288 287 285 285 284 284 283 283 283 283 283 283 283 283 283 284 284 284 285 284 284 283 283 282 282 282 282 282 282 282 283 283 283 284 284 284 284 285 285 285 286 286 286 286 286 285 285 284 283 283 282 282 283 285 285 284 284 283 282 279 277 276 277 277 277 275 273 274 275 275 275 275 274 273 272 270 268 266 265 264 264
295 294 294 294 294 293 292 291 290 288 288 287 285 284 283 283 283 283 283 284 284 284 285 285 286 286 285 284 284 283 283 283 283 283 283 283 284 283 284 284 285 285 286 286 286 286 287 287 287 287 287 286 287 287 287 285 284 284 286 287 287 286 286 284 282 281 279 278 278 277 276 275 275 275 275 274 273 273 272 271 270 269 268 266 264 263 262
297 298 300 300 299 298 298 297 295 293 291 290 288 287 286 286 285 285 285 285 286 286 286 287 287 287 286 286 286 286 286 286 286 286 286 286 286 286 286 286 287 287 288 288 288 289 289 289 289 288 288 289 290 290 288 287 287 288 287 287 286 286 285 283 283 283 282 281 279 277 276 276 276 275 274 273 272 270 269 268 268 267 267 266 264 263 262
302 304 305 303 302 302 303 301 298 296 295 293 292 291 290 289 288 287 287 288 288 289 289 289 290 290 289 290 290 289 290 290 290 290 290 290 290 291 291 290 291 291 291 291 291 290 290 289 288 288 288 289 289 288 287 288 288 288 286 285 285 285 285 284 284 283 283 281 279 277 275 275 274 272 271 270 270 269 268 267 267 267 266 265 264 262 260
308 309 308 305 305 307 306 303 300 299 298 297 295 294 293 292 291 290 290 290 290 291 291 291 291 292 292 292 292 292 293 293 293 293 294 293 293 293 293 293 293 293 293 293 293 292 291 291 290 290 291 291 291 290 290 289 288 287 285 285 285 285 285 284 284 283 282 280 278 276 274 273 272 271 270 270 270 270 270 269 268 267 266 264 263 261 259
313 312 309 308 309 310 308 305 303 302 300 299 297 296 295 295 294 294 293 293 292 292 293 293 294 294 294 294 293 293 294 294 293 293 294 294 294 294 294 295 295 295 295 296 295 295 295 294 294 294 294 294 293 292 291 289 288 287 287 287 286 285 284 283 283 282 281 279 277 276 274 273 273 273 272 271 271 270 270 269 267 265 263 260 258 256 255
317 314 312 311 312 311 309 307 306 304 303 301 300 298 297 297 297 297 297 296 296 295 295 296 296 296 296 296 296 296 297 297 297 297 297 298 298 298 298 298 298 297 297 296 295 294 294 294 294 294 295 294 294 293 291 290 290 290 289 288 286 285 284 283 283 282 280 279 278 277 276 276 276 274 273 271 270 268 268 266 264 261 258 256 254 253 251
319 316 314 314 313 313 312 310 308 307 306 304 303 301 299 299 298 297 297 297 297 297 296 296 296 297 297 298 298 299 301 302 302 302 302 302 301 300 300 299 298 297 297 296 295 295 295 295 295 296 295 295 294 294 293 292 292 291 289 287 286 285 285 284 283 282 280 279 279 279 278 276 274 272 271 270 269 268 266 263 261 259 257 256 254 252 250
320 317 315 315 314 314 314 313 311 310 309 307 305 303 301 300 299 298 298 298 298 297 297 296 297 298 299 300 300 300 300 300 300 300 301 301 300 300 301 300 299 298 298 299 299 299 299 298 298 297 296 296 296 295 294 293 292 290 288 287 287 286 286 285 284 283 282 281 280 278 276 273 271 269 269 268 267 266 264 262 260 259 257 254 251 249 247
320 317 316 316 315 315 315 314 312 311 310 309 308 307 305 304 303 302 301 301 302 302 301 300 301 302 303 303 303 303 302 302 302 303 303 303 303 303 303 302 301 301 301 302 301 301 301 300 299 298 298 297 296 294 293 292 291 289 288 288 288 287 286 284 283 283 282 281 278 275 272 271 270 269 268 267 265 263 261 260 259 258 255 252 249 248 246
321 318 316 315 314 314 315 313 311 309 308 307 307 306 306 306 307 306 307 309 310 310 307 306 307 308 307 307 307 307 306 306 306 306 306 306 306 305 304 303 303 303 303 303 303 302 302 301 300 299 299 298 296 294 293 292 290 289 289 289 288 286 284 283 283 282 280 277 275 273 271 270 269 268 267 266 264 261 259 258 256 255 253 251 249 248 246
324 321 318 316 315 314 314 312 310 309 308 308 308 308 309 311 312 312 312 313 313 311 308 307 308 309 309 308 308 308 307 307 308 309 309 309 308 307 306 305 304 304 304 305 304 303 303 302 301 300 299 298 297 295 293 291 290 291 291 290 287 284 283 282 281 279 277 275 273 272 271 269 268 266 265 263 261 259 257 255 254 252 250 248 247 245 244
326 324 321 319 318 318 318 316 314 313 313 313 313 313 313 313 313 312 311 311 311 310 308 307 308 310 310 310 311 311 310 311 312 312 311 310 309 307 306 306 306 306 306 306 305 304 304 303 302 300 299 299 298 295 292 292 292 292 291 288 285 284 283 281 279 277 275 274 272 271 269 268 265 263 260 258 257 255 254 252 251 249 247 245 243 242 240
329 327 324 323 322 323 323 321 318 316 315 315 314 313 313 313 313 312 312 312 313 312 311 311 312 314 314 314 314 314 313 313 313 313 311 310 310 309 308 308 308 309 308 307 306 306 305 304 302 301 301 300 297 293 293 294 294 291 289 287 286 284 281 279 277 276 274 272 270 269 267 265 262 259 257 256 255 253 252 250 248 246 244 242 241 239 237
330 328 326 323 323 324 324 322 318 315 315 315 314 314 314 315 315 315 315 315 316 316 316 316 316 316 316 316 315 315 314 314 315 314 313 312 312 311 310 311 311 311 310 309 308 307 306 305 304 303 303 299 295 294 295 295 293 290 289 287 285 282 280 278 277 275 272 269 268 267 265 262 259 257 256 255 253 252 250 248 246 245 243 242 241 239 236
330 328 324 321 320 321 321 319 316 314 314 315 315 315 316 317 317 317 317 318 318 318 318 317 317 317 317 316 316 316 316 317 317 316 315 314 313 313 313 313 313 312 312 311 310 309 308 306 306 305 303 298 295 295 296 295 292 290 288 286 283 280 279 278 276 273 270 268 266 265 263 260 257 254 253 251 249 247 246 246 245 244 243 242 241 239 236
329 327 323 318 317 318 319 318 316 314 314 315 316 315 316 317 317 317 317 318 318 317 317 317 317 318 318 318 318 318 319 319 319 318 317 315 315 315 315 315 315 314 314 313 312 310 309 308 308 306 302 298 297 298 298 295 292 290 288 285 283 280 279 277 275 273 270 268 265 262 260 257 254 251 248 246 245 244 244 244 244 243 242 241 240 238 235
327 326 322 317 315 315 317 317 316 314 314 314 314 315 315 316 316 316 316 316 316 317 317 318 318 318 318 319 319 320 320 321 320 319 318 317 316 317 317 317 317 316 316 315 314 312 311 311 310 306 301 300 301 301 298 295 292 290 289 286 283 281 279 277 275 272 270 267 263 258 255 253 251 249 246 244 244 244 244 243 243 243 242 241 240 238 235
324 324 322 318 314 314 315 315 314 313 312 312 313 314 315 316 317 316 316 316 317 318 319 320 320 320 320 321 321 321 322 322 322 321 320 319 318 318 320 320 320 319 319 317 316 315 314 314 310 306 303 303 304 302 298 295 293 292 289 287 283 280 278 276 274 272 268 265 261 256 252 250 250 248 246 244 244 244 245 243 242 242 242 241 240 238 236
322 322 321 317 314 314 315 313 311 310 310 310 311 313 315 317 317 317 316 317 317 318 320 321 321 320 321 322 322 323 323 324 323 322 322 321 320 321 322 322 322 322 321 320 318 318 317 315 311 306 305 306 306 302 298 297 295 292 290 287 283 280 277 275 273 270 266 263 260 256 253 250 248 247 245 243 242 243 244 243 241 241 242 242 241 239 237
322 321 320 317 314 314 315 315 312 309 308 309 310 312 314 317 317 316 316 317 317 319 320 321 321 321 322 323 324 324 324 325 325 324 323 322 322 323 324 325 324 324 323 322 321 320 319 316 311 308 307 308 307 303 300 299 297 294 291 288 284 279 276 274 272 269 265 261 259 257 255 252 250 247 245 243 241 241 242 243 242 242 242 243 243 243 241
324 322 320 317 314 313 315 315 313 310 308 309 310 311 314 316 317 316 316 317 318 319 322 324 324 323 324 324 325 325 325 325 326 326 325 323 323 324 325 326 326 326 325 324 323 322 320 317 312 309 309 310 308 305 302 300 298 295 292 289 284 280 277 275 273 270 265 261 258 256 254 252 251 249 246 243 242 241 242 242 243 242 242 243 244 244 243
Height
10461 10461 10460 10459 10458 10457 10457 10456 10456 10456 10456 10455 10455 10456 10456 10456 10456 10456 10456 10456 10458 10459 10459 10459 10459 10458 10457 10458 10458 10458 10458 10458 10459 10459 10459 10459 10458 10458 10457 10455 10454 10455 10455 10454 10454 10454 10454 10453 10453 10452 10452 10453 10454 10454 10454 10454 10452 10452 10451 10450 10451 10452 10452 10453 10453 10452 10450 10445 10441 10439 10438 10438 10439 10441 10443 10443 10443 10443 10442 10446 10448 10448 10451 10451 10451 10453 10451
10458 10458 10457 10456 10455 10454 10453 10452 10452 10452 10452 10451 10451 10451 10451 10450 10451 10451 10451 10451 10451 10452 10453 10453 10453 10453 10451 10452 10452 10452 10452 10452 10452 10452 10452 10453 10453 10452 10451 10450 10449 10449 10449 10449 10448 10447 10447 10447 10445 10444 10444 10445 10446 10447 10447 10446 10445 10445 10444 10443 10444 10444 10444 10446 10446 10446 10445 10442 10438 10435 10432 10430 10429 10430 10432 10432 10433 10433 10433 10435 10437 10441 10445 10443 10443 10446 10442
10455 10454 10453 10452 10452 10450 10449 10448 10448 10448 10448 10447 10447 10446 10446 10445 10445 10446 10446 10446 10446 10446 10447 10447 10447 10448 10446 10446 10446 10446 10446 10446 10446 10445 10444 10446 10447 10446 10444 10444 10444 10444 10444 10443 10442 10441 10442 10441 10440 10439 10438 10437 10437 10437 10437 10437 10437 10437 10437 10436 10437 10437 10437 10438 10438 10439 10439 10437 10434 10431 10428 10426 10423 10421 10421 10420 10421 10423 10424 10425 10427 10432 10435 10434 10437 10439 10433
10451 10451 10450 10449 10448 10447 10445 10444 10443 10443 10443 10443 10442 10442 10441 10440 10440 10440 10441 10441 10440 10440 10441 10441 10441 10442 10441 10440 10440 10440 10440 10440 10440 10439 10438 10438 10438 10438 10438 10438 10437 10438 10437 10436 10436 10435 10435 10435 10435 10435 10432 10430 10428 10427 10427 10428 10428 10429 10429 10429 10429 10429 10429 10430 10430 10431 10431 10430 10429 10426 10424 10421 10418 10414 10411 10410 10410 10412 10414 10416 10419 10420 10421 10425 10430 10428 10423
10448 10447 10446 10445 10444 10443 10442 10440 10439 10439 10438 10438 10437 10437 10436 10436 10434 10434 10435 10436 10436 10435 10435 10435 10435 10436 10435 10434 10434 10434 10434 10433 10433 10433 10433 10433 10431 10431 10432 10432 10431 10431 10430 10429 10429 10429 10427 10428 10429 10428 10427 10425 10421 10419 10418 10418 10419 10419 10420 10420 10420 10421 10422 10422 10422 10422 10423 10423 10422 10420 10418 10416 10412 10407 10403 10400 10400 10402 10403 10404 10407 10406 10407 10417 10419 10412 10411
10444 10443 10442 10442 10441 10439 10438 10436 10435 10434 10434 10433 10433 10432 10431 10431 10430 10428 10428 10430 10431 10431 10430 10429 10429 10430 10430 10429 10428 10427 10426 10426 10426 10426 10427 10427 10426 10425 10426 10427 10426 10425 10424 10423 10423 10422 10421 10420 10421 10421 10421 10419 10416 10412 10409 10409 10410 10409 10409 10411 10411 10413 10413 10412 10413 10413 10414 10414 10413 10411 10410 10410 10407 10403 10398 10394 10392 10392 10392 10391 10391 10390 10392 10403 10405 10399 10404
10440 10439 10438 10437 10436 10435 10434 10432 10431 10430 10429 10429 10428 10427 10426 10426 10425 10424 10423 10423 10425 10425 10425 10425 10424 10424 10425 10423 10422 10422 10420 10419 10419 10418 10418 10418 10418 10417 10417 10419 10419 10418 10418 10417 10416 10416 10415 10414 10413 10412 10412 10411 10409 10406 10402 10401 10402 10401 10400 10400 10401 10402 10403 10402 10404 10404 10404 10404 10403 10401 10400 10401 10401 10398 10394 10389 10385 10383 10381 10379 10377 10374 10377 10387 10390 10391 10398
10436 10435 10434 10433 10431 10430 10429 10428 10427 10426 10424 10424 10424 10423 10422 10421 10420 10419 10418 10418 10418 10419 10419 10419 10419 10420 10419 10418 10417 10416 10415 10413 10412 10412 10411 10410 10410 10409 10408 10408 10409 10410 10411 10410 10409 10408 10407 10405 10404 10404 10403 10403 10401 10399 10396 10393 10391 10391 10390 10389 10389 10391 10392 10393 10393 10394 10397 10396 10392 10390 10389 10390 10391 10390 10386 10383 10379 10374 10369 10365 10363 10362 10367 10375 10377 10382 10389
10431 10430 10429 10428 10426 10425 10424 10423 10422 10421 10420 10419 10418 10418 10417 10416 10416 10414 10413 10413 10412 10413 10413 10412 10412 10413 10412 10411 10411 10410 10410 10409 10407 10407 10407 10405 10403 10402 10401 10400 10400 10401 10402 10402 10401 10400 10398 10397 10396 10396 10395 10394 10392 10390 10389 10386 10382 10379 10378 10377 10379 10379 10381 10382 10382 10385 10390 10387 10381 10380 10380 10379 10382 10383 10379 10373 10367 10362 10357 10353 10353 10354 10358 10362 10365 10371 10377
10425 10424 10424 10422 10421 10419 10418 10417 10416 10415 10415 10414 10413 10413 10411 10410 10409 10409 10408 10407 10407 10407 10407 10406 10405 10404 10403 10402 10403 10403 10403 10402 10400 10399 10400 10399 10397 10396 10395 10394 10393 10393 10393 10393 10392 10392 10392 10390 10389 10388 10386 10385 10383 10381 10378 10376 10374 10370 10366 10365 10366 10367 10369 10371 10370 10374 10381 10377 10370 10370 10369 10371 10377 10376 10367 10358 10352 10350 10348 10345 10345 10345 10347 10350 10353 10357 10361
10419 10418 10417 10416 10415 10413 10412 10411 10410 10409 10408 10408 10408 10408 10406 10404 10403 10401 10401 10400 10400 10401 10401 10400 10398 10396 10395 10394 10394 10394 10393 10393 10392 10391 10391 10390 10390 10389 10387 10386 10385 10383 10383 10383 10382 10383 10384 10382 10381 10380 10379 10377 10375 10371 10369 10366 10364 10362 10359 10356 10355 10354 10355 10358 10357 10361 10368 10366 10360 10357 10360 10366 10369 10362 10350 10344 10342 10343 10342 10339 10335 10333 10335 10338 10341 10343 10345
10412 10411 10410 10410 10409 10408 10406 10404 10403 10402 10401 10401 10401 10401 10400 10398 10397 10395 10394 10393 10393 10393 10393 10392 10390 10389 10388 10387 10387 10386 10385 10385 10384 10384 10382 10381 10381 10380 10379 10377 10376 10374 10374 10374 10373 10372 10372 10372 10372 10371 10370 10368 10365 10362 10360 10358 10354 10353 10351 10349 10348 10345 10343 10343 10343 10345 10351 10353 10347 10346 10353 10358 10354 10346 10340 10337 10335 10333 10331 10329 10326 10324 10324 10327 10329 10331 10332
10404 10403 10403 10402 10402 10401 10400 10398 10396 10395 10393 10393 10393 10393 10393 10391 10390 10389 10388 10386 10385 10385 10384 10383 10382 10380 10379 10378 10378 10378 10377 10376 10376 10376 10375 10373 10371 10370 10368 10367 10367 10367 10366 10365 10363 10362 10361 10361 10360 10359 10358 10357 10355 10352 10350 10348 10346 10344 10342 10340 10340 10340 10335 10332 10330 10329 10332 10336 10334 10334 10341 10344 10339 10334 10332 10328 10325 10322 10319 10318 10316 10314 10315 10317 10319 10320 10320
10397 10396 10395 10395 10394 10393 10393 10391 10389 10388 10386 10385 10384 10384 10384 10383 10382 10381 10380 10379 10379 10377 10376 10375 10374 10371 10369 10369 10368 10368 10368 10368 10367 10366 10366 10365 10362 10360 10357 10357 10358 10358 10358 10356 10355 10353 10352 10351 10350 10349 10347 10345 10343 10342 10339 10337 10335 10334 10332 10330 10331 10331 10327 10322 10320 10318 10317 10319 10320 10321 10327 10328 10325 10322 10319 10316 10315 10312 10308 10307 10305 10304 10306 10308 10309 10309 10309
10389 10388 10387 10386 10386 10385 10385 10384 10382 10380 10379 10377 10376 10375 10375 10374 10373 10372 10371 10370 10370 10369 10367 10366 10364 10362 10361 10360 10360 10359 10359 10358 10357 10356 10355 10355 10353 10350 10348 10348 10348 10348 10347 10346 10344 10343 10341 10341 10340 10339 10338 10334 10332 10331 10329 10326 10323 10321 10321 10322 10321 10319 10317 10313 10310 10310 10307 10305 10307 10310 10312 10313 10311 10308 10305 10303 10303 10299 10296 10294 10294 10296 10298 10299 10299 10299 10299
10380 10379 10378 10377 10377 10376 10376 10375 10374 10373 10371 10369 10368 10366 10365 10364 10364 10363 10361 10360 10360 10359 10358 10356 10353 10352 10351 10352 10351 10351 10350 10348 10347 10346 10344 10344 10343 10340 10339 10339 10339 10339 10337 10335 10333 10332 10330 10330 10329 10328 10327 10324 10322 10321 10320 10316 10310 10304 10305 10310 10309 10307 10307 10304 10302 10301 10299 10295 10296 10299 10298 10298 10298 10296 10293 10291 10288 10286 10284 10283 10285 10288 10290 10289 10289 10289 10289
10371 10370 10369 10368 10367 10367 10366 10366 10365 10364 10362 10361 10359 10357 10355 10354 10354 10353 10351 10350 10350 10350 10349 10347 10344 10342 10341 10341 10342 10342 10340 10338 10337 10336 10334 10333 10332 10330 10329 10329 10330 10330 10328 10324 10323 10322 10320 10318 10318 10317 10316 10313 10311 10310 10309 10307 10301 10293 10289 10291 10293 10293 10293 10293 10292 10291 10289 10286 10287 10288 10286 10286 10286 10284 10281 10280 10277 10273 10271 10274 10278 10281 10281 10280 10280 10279 10278
10362 10360 10359 10358 10357 10356 10356 10355 10355 10355 10353 10352 10350 10348 10346 10344 10344 10343 10341 10340 10339 10340 10340 10337 10335 10334 10332 10330 10330 10331 10330 10328 10327 10327 10325 10323 10321 10318 10316 10316 10319 10320 10319 10316 10313 10313 10311 10309 10308 10307 10305 10302 10300 10299 10298 10296 10293 10287 10280 10276 10278 10279 10279 10279 10280 10280 10278 10277 10277 10276 10274 10274 10274 10272 10271 10271 10268 10263 10262 10264 10268 10270 10270 10270 10270 10269 10269
10352 10350 10349 10348 10347 10346 10345 10344 10344 10344 10343 10342 10340 10338 10336 10334 10333 10332 10331 10330 10329 10330 10330 10328 10326 10325 10323 10322 10320 10319 10318 10319 10319 10318 10315 10311 10309 10307 10304 10304 10305 10307 10308 10307 10304 10303 10302 10300 10298 10297 10294 10291 10289 10287 10286 10284 10282 10279 10274 10268 10266 10266 10267 10267 10268 10268 10267 10266 10266 10266 10264 10263 10263 10262 10261 10261 10259 10257 10256 10256 10256 10257 10259 10258 10258 10259 10259
10342 10340 10339 10337 10336 10335 10334 10333 10332 10332 10332 10331 10330 10328 10325 10324 10323 10322 10321 10319 10318 10319 10320 10318 10316 10315 10313 10313 10312 10310 10309 10309 10308 10306 10303 10301 10300 10298 10295 10294 10293 10293 10294 10293 10291 10292 10292 10290 10288 10286 10283 10281 10279 10276 10274 10272 10270 10267 10265 10262 10258 10256 10256 10256 10256 10256 10256 10254 10254 10254 10254 10253 10252 10251 10251 10251 10250 10249 10249 10248 10246 10246 10247 10247 10247 10247 10247
10331 10329 10328 10326 10325 10324 10323 10322 10321 10320 10320 10319 10319 10317 10315 10314 10313 10311 10310 10308 10307 10308 10309 10308 10306 10305 10304 10303 10302 10300 10298 10297 10296 10295 10294 10292 10290 10288 10286 10284 10283 10283 10282 10280 10278 10278 10278 10278 10276 10274 10272 10270 10268 10265 10264 10263 10260 10257 10255 10253 10250 10247 10245 10245 10245 10244 10245 10245 10244 10244 10243 10241 10240 10241 10241 10241 10241 10240 10239 10239 10238 10237 10236 10236 10236 10237 10236
10320 10318 10317 10315 10314 10313 10312 10311 10310 10309 10308 10308 10308 10307 10305 10303 10302 10301 10299 10298 10297 10297 10298 10297 10296 10295 10295 10294 10292 10289 10287 10285 10286 10286 10285 10283 10281 10279 10277 10275 10273 10272 10272 10271 10270 10268 10267 10265 10264 10262 10260 10258 10256 10255 10255 10254 10252 10248 10244 10243 10243 10240 10237 10237 10237 10235 10234 10236 10235 10233 10231 10231 10231 10232 10232 10231 10230 10229 10229 10229 10230 10229 10227 10226 10226 10226 10226
10309 10307 10306 10304 10303 10302 10301 10300 10299 10298 10297 10297 10297 10296 10295 10293 10292 10290 10289 10287 10286 10287 10287 10287 10286 10285 10285 10284 10282 10279 10277 10276 10277 10276 10275 10273 10272 10271 10269 10267 10265 10262 10261 10262 10261 10260 10258 10256 10253 10252 10249 10246 10246 10246 10245 10244 10243 10239 10236 10233 10232 10229 10228 10228 10229 10227 10226 10227 10226 10221 10220 10221 10222 10222 10222 10221 10220 10219 10219 10220 10220 10219 10218 10217 10217 10217 10216
10298 10296 10295 10294 10293 10291 10290 10290 10289 10289 10287 10287 10286 10285 10285 10283 10282 10281 10280 10278 10277 10277 10278 10277 10276 10276 10275 10274 10272 10269 10268 10268 10268 10267 10265 10263 10261 10261 10260 10260 10257 10254 10252 10253 10251 10250 10249 10246 10244 10242 10240 10237 10237 10237 10236 10235 10233 10231 10230 10227 10221 10217 10218 10219 10219 10220 10221 10221 10218 10212 10210 10210 10210 10210 10210 10210 10209 10209 10210 10210 10211 10210 10209 10208 10208 10208 10207
10289 10287 10285 10284 10283 10282 10281 10280 10280 10280 10278 10277 10276 10275 10275 10273 10272 10271 10271 10269 10267 10267 10269 10269 10267 10266 10265 10264 10262 10260 10260 10259 10258 10257 10256 10254 10252 10251 10250 10250 10249 10246 10244 10244 10242 10240 10239 10237 10234 10233 10231 10229 10229 10227 10226 10225 10223 10221 10221 10217 10211 10209 10210 10210 10211 10213 10214 10213 10207 10203 10202 10202 10200 10198 10197 10197 10198 10199 10200 10200 10201 10202 10203 10202 10200 10199 10198
10280 10278 10277 10275 10274 10272 10272 10272 10272 10271 10270 10268 10267 10266 10265 10264 10262 10262 10261 10260 10258 10258 10259 10261 10259 10256 10255 10255 10253 10252 10251 10250 10249 10248 10247 10246 10244 10242 10240 10239 10240 10238 10236 10235 10233 10231 10229 10227 10226 10224 10223 10221 10220 10218 10216 10215 10214 10212 10210 10204 10201 10202 10203 10202 10204 10206 10205 10202 10196 10193 10194 10195 10191 10186 10185 10185 10186 10188 10190 10191 10192 10194 10195 10194 10193 10190 10189
10272 10270 10268 10267 10265 10264 10264 10264 10263 10263 10261 10259 10258 10257 10256 10255 10254 10253 10252 10251 10249 10249 10250 10253 10251 10248 10246 10246 10245 10244 10243 10241 10240 10239 10238 10236 10235 10233 10231 10230 10229 10229 10228 10226 10224 10222 10221 10220 10218 10216 10215 10214 10212 10210 10208 10206 10205 10204 10199 10193 10192 10195 10196 10195 10197 10198 10196 10191 10185 10182 10187 10190 10183 10175 10173 10175 10175 10176 10180 10182 10181 10181 10181 10182 10182 10181 10179
10264 10262 10260 10259 10257 10257 10256 10256 10256 10254 10253 10251 10250 10249 10248 10246 10245 10245 10244 10243 10241 10240 10242 10244 10244 10241 10238 10237 10237 10236 10235 10233 10231 10230 10229 10228 10226 10225 10223 10221 10220 10219 10218 10217 10215 10214 10213 10212 10210 10209 10207 10206 10205 10203 10200 10198 10197 10194 10187 10183 10185 10189 10189 10187 10188 10189 10187 10181 10175 10173 10177 10181 10176 10167 10162 10163 10163 10166 10172 10173 10170 10168 10168 10169 10171 10171 10169
10256 10254 10252 10251 10250 10249 10249 10249 10248 10246 10245 10243 10242 10242 10241 10239 10238 10237 10236 10234 10233 10233 10233 10235 10235 10233 10232 10230 10229 10228 10227 10226 10224 10222 10220 10219 10218 10216 10214 10213 10211 10210 10209 10207 10206 10204 10203 10201 10200 10199 10198 10197 10197 10195 10191 10189 10188 10183 10175 10174 10178 10180 10180 10179 10178 10179 10178 10173 10168 10166 10167 10168 10165 10159 10156 10154 10153 10156 10162 10162 10159 10159 10159 10159 10160 10160 10159
10249 10247 10245 10244 10243 10242 10242 10241 10240 10239 10238 10237 10236 10235 10234 10232 10231 10230 10229 10227 10226 10225 10225 10226 10227 10225 10224 10223 10222 10221 10219 10218 10217 10215 10213 10211 10210 10209 10207 10205 10203 10202 10200 10199 10198 10195 10193 10191 10190 10189 10188 10187 10187 10186 10183 10181 10179 10172 10165 10167 10171 10170 10169 10169 10168 10168 10168 10163 10159 10159 10158 10155 10153 10151 10150 10148 10147 10148 10151 10150 10148 10149 10150 10150 10150 10150 10149
10243 10241 10239 10238 10237 10236 10235 10235 10234 10232 10231 10231 10230 10229 10227 10226 10225 10224 10222 10220 10219 10218 10217 10218 10219 10218 10216 10215 10215 10214 10212 10211 10210 10208 10206 10205 10204 10202 10200 10197 10196 10194 10193 10192 10191 10188 10185 10183 10182 10180 10178 10177 10177 10177 10174 10172 10170 10165 10158 10158 10160 10159 10158 10158 10156 10156 10156 10154 10152 10151 10148 10143 10142 10143 10142 10141 10140 10140 10140 10139 10139 10140 10141 10141 10142 10142 10142
10237 10235 10234 10233 10232 10231 10230 10229 10228 10227 10225 10225 10224 10222 10221 10220 10219 10217 10216 10214 10213 10212 10211 10210 10211 10211 10209 10207 10207 10206 10205 10204 10203 10202 10200 10198 10197 10195 10193 10190 10188 10187 10185 10184 10183 10180 10177 10176 10174 10171 10168 10168 10168 10167 10164 10161 10160 10158 10153 10149 10148 10148 10148 10147 10144 10143 10144 10145 10145 10143 10137 10133 10134 10136 10134 10132 10132 10132 10132 10130 10130 10131 10132 10133 10134 10135 10135
10232 10231 10229 10228 10227 10226 10225 10224 10223 10221 10220 10219 10217 10216 10216 10215 10213 10212 10210 10209 10207 10206 10205 10204 10205 10205 10203 10201 10200 10199 10198 10197 10196 10195 10193 10191 10189 10188 10186 10184 10182 10180 10178 10176 10175 10173 10170 10168 10165 10162 10160 10159 10159 10158 10154 10150 10150 10150 10146 10142 10139 10138 10137 10136 10135 10134 10134 10134 10134 10133 10128 10125 10126 10127 10125 10123 10123 10124 10124 10123 10123 10123 10124 10125 10126 10127 10128
10229 10227 10226 10224 10222 10222 10221 10219 10218 10217 10216 10214 10212 10211 10211 10210 10209 10207 10206 10204 10203 10201 10200 10199 10199 10198 10197 10195 10193 10192 10191 10190 10189 10187 10186 10184 10182 10180 10178 10176 10174 10173 10170 10168 10166 10165 10163 10160 10157 10154 10153 10152 10151 10150 10147 10143 10142 10141 10138 10134 10131 10130 10128 10127 10127 10126 10125 10124 10124 10123 10120 10118 10117 10117 10117 10115 10115 10115 10116 10116 10116 10117 10118 10118 10119 10120 10121
10226 10224 10222 10220 10218 10218 10217 10215 10213 10213 10212 10211 10208 10207 10206 10205 10204 10203 10202 10201 10199 10197 10195 10194 10193 10193 10191 10190 10188 10186 10185 10184 10182 10180 10179 10177 10176 10173 10171 10168 10167 10165 10163 10161 10158 10155 10153 10151 10148 10146 10145 10144 10142 10140 10138 10136 10133 10131 10129 10126 10124 10122 10120 10119 10118 10118 10117 10115 10114 10113 10112 10110 10109 10109 10109 10108 10108 10108 10109 10110 10110 10111 10111 10111 10112 10113 10113
10223 10221 10218 10216 10215 10214 10213 10211 10210 10209 10208 10207 10205 10203 10202 10201 10200 10199 10198 10197 10196 10194 10191 10189 10188 10187 10186 10185 10182 10180 10180 10178 10177 10176 10174 10171 10169 10167 10165 10162 10160 10157 10155 10153 10150 10146 10144 10142 10138 10136 10136 10135 10133 10131 10129 10126 10124 10122 10121 10118 10116 10114 10112 10111 10110 10110 10108 10107 10106 10105 10104 10103 10103 10103 10102 10102 10102 10103 10103 10104 10104 10104 10104 10104 10105 10106 10107
10219 10217 10215 10213 10212 10211 10209 10208 10206 10205 10204 10203 10202 10200 10198 10197 10196 10195 10194 10192 10191 10190 10188 10186 10184 10182 10181 10180 10177 10175 10173 10172 10170 10169 10168 10165 10161 10159 10158 10155 10152 10149 10148 10146 10142 10139 10137 10135 10131 10129 10128 10126 10124 10122 10119 10117 10115 10114 10112 10110 10108 10106 10104 10103 10103 10102 10101 10100 10099 10098 10098 10097 10097 10096 10096 10096 10096 10097 10098 10098 10098 10097 10097 10098 10099 10100 10101
10216 10214 10212 10210 10209 10207 10206 10204 10203 10201 10200 10199 10198 10196 10195 10194 10193 10191 10190 10189 10187 10186 10184 10182 10180 10178 10177 10176 10173 10170 10168 10165 10163 10161 10160 10158 10155 10152 10150 10148 10145 10142 10140 10138 10135 10132 10129 10128 10125 10122 10120 10118 10115 10113 10111 10109 10107 10106 10104 10102 10100 10099 10097 10096 10096 10095 10094 10093 10093 10092 10092 10091 10091 10090 10089 10090 10091 10092 10092 10092 10091 10091 10092 10094 10095 10096 10097
10214 10211 10209 10207 10205 10204 10203 10201 10199 10197 10196 10195 10194 10192 10191 10190 10189 10188 10186 10185 10184 10182 10180 10179 10177 10175 10173 10171 10170 10167 10165 10162 10159 10156 10155 10153 10149 10146 10143 10140 10137 10134 10132 10130 10127 10124 10121 10119 10117 10114 10112 10110 10108 10106 10103 10101 10100 10098 10097 10095 10094 10093 10091 10090 10088 10088 10087 10087 10087 10086 10085 10085 10084 10084 10085 10085 10085 10086 10086 10086 10086 10087 10088 10089 10090 10091 10091
10212 10209 10207 10204 10202 10201 10200 10198 10196 10194 10193 10191 10190 10188 10186 10185 10185 10183 10182 10181 10179 10178 10176 10174 10172 10171 10169 10166 10164 10162 10160 10157 10154 10151 10149 10147 10143 10140 10137 10133 10129 10126 10124 10122 10119 10117 10114 10112 10109 10107 10105 10103 10101 10099 10097 10095 10093 10091 10090 10089 10088 10087 10085 10083 10082 10082 10082 10082 10081 10080 10079 10079 10079 10080 10080 10080 10080 10081 10081 10081 10081 10082 10083 10084 10085 10086 10087
10210 10207 10205 10203 10200 10198 10197 10195 10193 10192 10190 10189 10187 10185 10183 10182 10180 10179 10178 10177 10175 10173 10170 10168 10167 10166 10164 10161 10159 10156 10153 10151 10149 10145 10143 10140 10137 10133 10130 10127 10123 10120 10117 10115 10113 10110 10108 10105 10103 10100 10098 10096 10094 10092 10090 10089 10087 10085 10084 10083 10082 10080 10078 10078 10077 10077 10076 10076 10075 10074 10074 10074 10075 10075 10075 10075 10075 10076 10076 10076 10077 10078 10079 10080 10080 10082 10083
10205 10204 10202 10200 10198 10196 10194 10192 10190 10189 10187 10186 10184 10182 10180 10179 10177 10175 10173 10173 10172 10169 10166 10164 10162 10161 10159 10157 10155 10152 10148 10146 10143 10140 10136 10134 10130 10126 10123 10120 10117 10114 10111 10109 10106 10104 10101 10099 10097 10094 10092 10090 10088 10086 10084 10082 10081 10080 10079 10078 10076 10074 10073 10072 10072 10072 10071 10071 10070 10070 10070 10070 10071 10071 10071 10071 10071 10071 10071 10072 10073 10074 10075 10076 10077 10078 10080
10202 10200 10198 10196 10194 10193 10192 10190 10188 10186 10184 10182 10181 10179 10177 10176 10175 10173 10171 10169 10169 10167 10164 10161 10159 10158 10155 10152 10150 10147 10143 10140 10138 10134 10131 10128 10124 10121 10117 10114 10112 10109 10106 10103 10100 10098 10095 10093 10091 10088 10086 10085 10083 10080 10078 10077 10076 10075 10073 10072 10070 10069 10068 10067 10067 10067 10067 10066 10065 10065 10066 10066 10067 10067 10067 10066 10066 10067 10067 10068 10069 10070 10071 10072 10073 10074 10076
10200 10198 10195 10193 10191 10190 10189 10187 10185 10183 10181 10180 10178 10177 10175 10174 10172 10170 10168 10166 10164 10163 10160 10157 10155 10153 10150 10148 10145 10142 10138 10135 10132 10129 10125 10122 10119 10115 10111 10108 10106 10103 10100 10097 10094 10092 10090 10087 10085 10083 10081 10080 10077 10074 10073 10072 10071 10069 10068 10066 10065 10064 10063 10063 10063 10063 10062 10062 10061 10061 10062 10062 10063 10062 10062 10063 10063 10063 10064 10064 10065 10066 10067 10068 10069 10071 10072
10198 10196 10194 10191 10189 10188 10187 10185 10183 10181 10179 10177 10175 10173 10172 10170 10168 10166 10164 10162 10160 10158 10155 10153 10150 10148 10146 10143 10140 10137 10133 10130 10127 10123 10119 10116 10113 10110 10106 10103 10100 10097 10095 10092 10089 10086 10084 10082 10080 10078 10076 10074 10072 10070 10069 10068 10066 10064 10063 10062 10061 10060 10059 10058 10059 10059 10058 10058 10058 10058 10058 10059 10059 10059 10059 10059 10060 10060 10060 10061 10062 10062 10064 10065 10066 10067 10069
10195 10193 10191 10189 10187 10186 10184 10183 10181 10178 10176 10175 10172 10170 10167 10166 10164 10162 10160 10158 10156 10153 10151 10148 10146 10144 10141 10139 10136 10132 10129 10126 10122 10118 10114 10110 10107 10104 10101 10098 10095 10092 10089 10086 10084 10082 10079 10077 10075 10073 10071 10069 10067 10066 10065 10063 10061 10060 10059 10058 10057 10056 10055 10054 10055 10055 10054 10054 10054 10054 10055 10055 10055 10056 10056 10056 10057 10057 10057 10057 10058 10059 10060 10062 10063 10064 10066
10193 10191 10188 10186 10184 10182 10181 10180 10178 10176 10173 10172 10170 10167 10165 10163 10161 10158 10156 10154 10152 10150 10147 10145 10142 10139 10137 10134 10130 10127 10124 10120 10117 10113 10109 10105 10102 10099 10096 10093 10090 10087 10085 10082 10079 10077 10075 10073 10071 10069 10067 10065 10063 10062 10060 10058 10056 10056 10055 10054 10053 10052 10051 10051 10051 10051 10051 10051 10051 10052 10051 10052 10052 10052 10053 10053 10053 10053 10054 10054 10055 10056 10057 10058 10059 10061 10062
10191 10189 10186 10183 10180 10179 10178 10176 10175 10173 10170 10168 10166 10165 10163 10161 10158 10155 10153 10151 10149 10146 10144 10141 10138 10135 10132 10129 10126 10123 10120 10116 10112 10109 10105 10101 10097 10094 10092 10089 10086 10083 10080 10078 10075 10073 10070 10069 10067 10064 10062 10061 10059 10057 10055 10054 10053 10052 10052 10051 10050 10049 10048 10047 10047 10048 10048 10048 10048 10048 10048 10048 10048 10049 10050 10050 10050 10050 10051 10052 10052 10053 10054 10055 10056 10057 10059
10188 10186 10183 10179 10176 10175 10174 10172 10170 10169 10167 10165 10162 10161 10159 10157 10155 10152 10149 10147 10145 10142 10139 10136 10133 10130 10127 10124 10121 10118 10115 10112 10108 10104 10101 10097 10093 10090 10087 10084 10081 10079 10076 10073 10071 10068 10066 10065 10063 10060 10058 10057 10056 10053 10051 10050 10050 10049 10048 10047 10046 10045 10044 10044 10044 10044 10045 10044 10045 10045 10045 10045 10045 10046 10047 10047 10047 10047 10048 10049 10049 10050 10050 10051 10052 10053 10055
10185 10184 10181 10177 10173 10171 10170 10169 10166 10164 10162 10161 10159 10156 10155 10153 10151 10148 10145 10143 10141 10138 10136 10133 10130 10126 10123 10119 10116 10113 10110 10108 10104 10100 10096 10093 10089 10086 10083 10080 10077 10075 10072 10069 10067 10065 10063 10061 10059 10056 10055 10054 10052 10049 10047 10047 10047 10046 10045 10044 10043 10042 10041 10041 10041 10041 10042 10041 10041 10041 10042 10042 10042 10042 10043 10043 10044 10044 10045 10045 10046 10047 10047 10047 10048 10050 10051
10181 10180 10178 10175 10170 10167 10166 10165 10162 10159 10158 10156 10154 10152 10151 10149 10146 10144 10141 10138 10136 10134 10132 10129 10126 10122 10119 10115 10112 10109 10105 10103 10100 10096 10092 10088 10085 10082 10079 10077 10074 10071 10068 10066 10063 10061 10059 10057 10055 10053 10051 10050 10048 10046 10044 10044 10044 10043 10042 10041 10040 10039 10038 10037 10038 10038 10039 10039 10038 10038 10038 10038 10039 10039 10039 10040 10040 10041 10041 10042 10043 10043 10044 10044 10045 10046 10047
10178 10175 10174 10172 10168 10164 10162 10160 10158 10155 10153 10152 10150 10148 10147 10145 10143 10139 10137 10134 10131 10129 10127 10124 10121 10117 10114 10111 10108 10104 10101 10098 10095 10092 10088 10084 10081 10079 10076 10073 10070 10067 10065 10062 10060 10058 10056 10054 10052 10050 10048 10047 10045 10043 10041 10041 10041 10040 10039 10038 10037 10035 10035 10034 10035 10035 10036 10036 10035 10036 10036 10035 10035 10036 10036 10037 10037 10038 10038 10039 10039 10040 10040 10041 10041 10042 10043